{"data":{"norad_id":68373,"epoch":"2026-09-20T02:54:29.585664Z","epoch_age_seconds":105019,"freshness":"FRESH","line1":"1 68373U 26061P   26263.12117576  .00025727  00000+0  19877-3 0  9998","line2":"2 68373  82.2883 267.3128 0011979 123.1221 237.1193 15.71647556 28472","mean_motion":15.71647556,"eccentricity":0.0011979,"inclination_deg":82.2883,"raan_deg":267.3128,"arg_perigee_deg":123.1221,"mean_anomaly_deg":237.1193,"bstar":0.00019877,"rev_number":2847,"period_min":91.62359553849,"perigee_km":346.12325176258,"apogee_km":362.25255576702,"semimajor_km":6732.3249037648,"source":"CELESTRAK","updated_at":"2026-09-20T09:00:24.165387Z"}}